EW6466 Weather Reports


Display with metric or nautical units.
time (UTC)temp
F
wind
direction
speed
MPH
gust
MPH
rain 1hr
in
rain 24hr
in
rain mn
in
humidity
%
barometer
mb
20260906041536 73 275 2.0 8.0 0.00 0.17 0.17 85 1011.4
20260906040103 73 224 1.0 4.0 0.00 0.17 0.17 86 1011.1
20260906034534 73 224 0.0 1.0 0.00 0.17 0.17 86 1010.9
20260906033044 73 224 0.0 0.0 0.00 0.17 0.17 86 1010.8
20260906031530 74 224 0.0 0.0 0.00 0.17 0.17 86 1010.7
20260906030029 74 224 0.0 0.0 0.00 0.17 0.17 85 1010.5
20260906024527 75 224 0.0 0.0 0.00 0.17 0.17 85 1010.1
20260906023026 75 224 0.0 2.0 0.00 0.17 0.17 85 1009.9
20260906021525 76 224 0.0 1.0 0.00 0.17 0.17 85 1009.5
20260906020025 77 224 0.0 0.0 0.00 0.17 0.17 84 1009.3
20260906014528 78 224 0.0 0.0 0.00 0.17 0.17 84 1009.0
20260906013023 78 224 0.0 2.0 0.00 0.17 0.17 84 1008.8
20260906011524 79 224 0.0 0.0 0.00 0.17 0.17 83 1008.7
20260906010023 80 224 0.0 1.0 0.00 0.17 0.17 81 1008.6
20260906004526 82 224 0.0 4.0 0.00 0.17 0.17 79 1008.6
20260906003022 84 224 0.0 3.0 0.00 0.17 0.17 75 1008.6
20260906001524 86 224 0.0 0.0 0.00 0.17 0.17 74 1008.6
20260906000022 87 224 0.0 0.0 0.00 0.17 0.17 72 1008.6
20260905234521 87 224 0.0 3.0 0.00 0.17 0.17 71 1008.5
20260905233020 86 224 2.0 4.0 0.00 0.17 0.17 68 1008.5
20260905231521 85 224 2.0 4.0 0.00 0.17 0.17 72 1008.4
20260905230019 85 224 0.0 4.0 0.00 0.17 0.17 74 1008.6
20260905224544 85 224 4.0 9.0 0.00 0.17 0.17 68 1008.6
20260905223021 85 20 2.0 5.0 0.00 0.17 0.17 76 1008.6
20260905221516 81 355 1.0 2.0 0.01 0.17 0.17 84 1008.4
20260905220015 79 355 0.0 3.0 0.03 0.17 0.17 85 1008.7
20260905214515 78 355 0.0 1.0 0.11 0.17 0.17 85 1008.5
20260905213014 76 349 1.0 8.0 0.12 0.17 0.17 84 1008.5
20260905211533 76 360 6.0 14.0 0.10 0.15 0.15 84 1008.9
20260905210018 76 314 2.0 9.0 0.09 0.14 0.14 84 1009.1
20260905204508 78 360 7.0 12.0 0.02 0.06 0.06 80 1009.4
20260905203007 79 263 2.0 11.0 0.03 0.05 0.05 80 1009.6
20260905201507 78 298 8.0 13.0 0.05 0.05 0.05 82 1009.4
20260905200013 78 306 3.0 9.0 0.05 0.05 0.05 82 1009.7
20260905194502 81 289 6.0 10.0 0.04 0.04 0.04 77 1009.8
20260905193059 86 247 5.0 12.0 0.02 0.02 0.02 68 1010.1
20260905191605 88 193 4.0 9.0 0.00 0.00 0.00 61 1010.3
20260905190059 89 155 2.0 9.0 0.00 0.00 0.00 57 1010.4
20260905184600 90 182 6.0 12.0 0.00 0.00 0.00 56 1010.7
20260905183052 92 45 6.0 16.0 0.00 0.00 0.00 53 1010.8
20260905181552 92 44 4.0 13.0 0.00 0.00 0.00 51 1011.1
20260905180100 93 66 4.0 10.0 0.00 0.00 0.00 50 1011.3
20260905174550 93 34 6.0 12.0 0.00 0.00 0.00 52 1011.5
20260905173104 93 140 3.0 10.0 0.00 0.00 0.00 53 1011.8
20260905171546 93 221 4.0 10.0 0.00 0.00 0.00 51 1011.9
20260905170050 93 188 5.0 9.0 0.00 0.00 0.00 52 1012.0
20260905164539 90 196 4.0 12.0 0.00 0.00 0.00 55 1012.0
20260905163036 89 169 4.0 10.0 0.00 0.00 0.00 56 1012.2
20260905161536 87 192 4.0 9.0 0.00 0.00 0.00 64 1012.1
20260905160032 85 151 4.0 9.0 0.00 0.00 0.00 67 1012.3
20260905154531 86 148 3.0 7.0 0.00 0.00 0.00 65 1012.2
20260905153032 87 247 2.0 10.0 0.00 0.00 0.00 65 1012.2
20260905151527 84 138 3.0 8.0 0.00 0.00 0.00 69 1012.3
20260905150023 81 192 3.0 7.0 0.00 0.00 0.00 74 1012.4
20260905144524 80 201 1.0 5.0 0.00 0.00 0.00 77 1012.3
20260905143020 80 201 2.0 8.0 0.00 0.00 0.00 78 1012.2
20260905141519 78 223 1.0 5.0 0.00 0.00 0.00 83 1012.2
20260905140017 77 224 1.0 6.0 0.00 0.00 0.00 83 1012.2
20260905134518 77 224 3.0 6.0 0.00 0.00 0.00 84 1012.1
20260905133024 76 217 1.0 6.0 0.00 0.00 0.00 84 1011.9
20260905131523 75 217 2.0 4.0 0.00 0.00 0.00 85 1011.8
20260905130011 75 217 0.0 4.0 0.00 0.00 0.00 85 1011.6
20260905124510 75 217 0.0 3.0 0.00 0.00 0.00 84 1011.4
20260905123009 75 217 0.0 5.0 0.00 0.00 0.00 84 1011.4
20260905121509 75 202 0.0 2.0 0.00 0.00 0.00 84 1011.2
20260905120009 75 202 1.0 4.0 0.00 0.00 0.00 84 1011.2
20260905114508 75 202 1.0 4.0 0.00 0.00 0.00 83 1011.0
20260905113011 76 202 0.0 2.0 0.00 0.00 0.00 83 1010.9
20260905111507 76 200 0.0 4.0 0.00 0.00 0.00 83 1010.9
20260905110005 76 200 2.0 4.0 0.00 0.00 0.00 83 1011.0
20260905104504 76 202 2.0 5.0 0.00 0.00 0.00 83 1011.0
20260905103007 76 207 2.0 6.0 0.00 0.00 0.00 82 1011.0
20260905101504 76 53 1.0 6.0 0.00 0.00 0.00 82 1010.8
20260905100004 76 86 3.0 6.0 0.00 0.00 0.00 82 1010.8
20260905094503 76 202 1.0 5.0 0.00 0.00 0.00 82 1010.8
20260905093001 76 213 2.0 5.0 0.00 0.00 0.00 82 1010.9
20260905091613 76 10 1.0 4.0 0.00 0.00 0.00 81 1011.0
20260905090059 76 28 0.0 4.0 0.00 0.00 0.00 81 1011.0
20260905084600 76 287 0.0 3.0 0.00 0.00 0.00 80 1011.0
20260905083109 77 286 1.0 4.0 0.00 0.00 0.00 79 1010.7
20260905081554 77 286 1.0 8.0 0.00 0.00 0.00 78 1010.9
20260905080053 77 141 0.0 7.0 0.00 0.00 0.00 77 1010.9
20260905074550 78 158 0.0 5.0 0.00 0.00 0.00 75 1011.0
20260905073048 78 288 1.0 8.0 0.00 0.00 0.00 74 1011.3
20260905071546 78 53 0.0 3.0 0.00 0.00 0.00 72 1011.2
20260905070048 79 22 2.0 10.0 0.00 0.00 0.00 71 1011.2
20260905064542 79 44 1.0 5.0 0.00 0.00 0.00 69 1011.2
20260905063040 79 55 2.0 5.0 0.00 0.00 0.00 68 1011.4
20260905061544 80 179 1.0 8.0 0.00 0.00 0.00 67 1011.4
20260905060044 80 32 2.0 7.0 0.00 0.00 0.00 67 1011.1
20260905054602 80 229 1.0 10.0 0.00 0.00 0.00 68 1011.2
20260905053034 80 237 3.0 6.0 0.00 0.00 0.00 68 1011.1
20260905051534 81 243 1.0 7.0 0.00 0.00 0.00 67 1011.3
20260905050028 81 121 1.0 4.0 0.00 0.00 0.00 66 1011.3
20260905044530 81 27 2.0 12.0 0.00 0.00 0.00 66 1011.3
20260905043027 81 53 4.0 9.0 0.00 0.00 0.00 65 1011.3